Regional Weather Roundup
Issued by NWS

Home | Current Version | Previous Version | Text Only | Print | Product List | Glossary Off
Versions: 1 2 3 4 5 6 7 8 9 10 11 12 13 14 15 16 17 18 19 20 21 22 23 24 25 26 27

000
ASUS45 KSLC 251510
RWRUT

UTAH REGIONAL WEATHER ROUNDUP
NATIONAL WEATHER SERVICE SALT LAKE CITY UT
900 AM MDT SAT MAR 25 2017

UTZ001>011-023>025-251600-

NORTHERN UTAH

CITY           SKY/WX    TMP DP  RH WIND       PRES   REMARKS
BRIGHAM CITY     N/A     42  39  89 NW7       30.04S
HILL AFB       LGT RAIN  41  40  96 N8        30.02S
LOGAN          LGT RAIN  43  40  89 N9        30.05R
OGDEN          LGT RAIN  41  40  96 NW10      30.02R
SALT LAKE CITY LGT RAIN  46  42  86 NW10      30.02S
WENDOVER       LGT RAIN  43  37  79 NW3       30.07R
HEBER CITY     CLOUDY    46  30  53 SW8       29.98S

$$

UTZ011>015-024>027-251600-

CENTRAL/NORTHEAST UTAH

CITY           SKY/WX    TMP DP  RH WIND       PRES   REMARKS
PROVO AIRPORT  CLOUDY    48  42  80 NW10      30.03R
MOAB/CANYONLAN MOSUNNY   47  29  49 SE10      30.02S
DELTA          CLOUDY    46  36  66 NW7       30.00F
PRICE          CLOUDY    42  33  70 CALM      30.03S
ROOSEVELT      CLOUDY    41  34  75 CALM      30.05F
VERNAL         CLOUDY    44  33  65 CALM      30.04S

$$

UTZ013>016-019>022-027-251600-

SOUTHERN UTAH

CITY           SKY/WX    TMP DP  RH WIND       PRES   REMARKS
BRYCE CANYON   CLOUDY    34  28  79 CALM      30.08F
CEDAR CITY     CLOUDY    45  29  53 S10       29.98F
MILFORD        CLOUDY    46  31  55 SW8       29.97F
ST GEORGE      CLOUDY    54  34  46 CALM      29.99R
HANKSVILLE     CLOUDY    41  32  70 CALM      30.04S
BLANDING       PTSUNNY   45  25  44 CALM      30.18S

$$

REGIONAL REPORTS     COLORADO/ARIZONA

CITY           SKY/WX    TMP DP  RH WIND       PRES   REMARKS
CRAIG, CO      CLOUDY    42  25  50 E12       30.07F
GRAND JUNCTION SUNNY     48  29  47 SE17      30.06F
RIFLE, CO      CLOUDY    37  28  70 CALM      30.10F
MONTROSE, CO   CLOUDY    38  27  64 S3        30.12F
CORTEZ, CO     SUNNY     38  28  67 CALM      30.12F
COLORADO CITY    N/A     48  34  57 SE8       30.06R
PAGE, AZ       CLOUDY    50  34  54 CALM      30.03S
GRAND CANYON   CLOUDY    36  32  85 SE5       30.09F WCI  32
KINGMAN, AZ    CLOUDY    54  23  30 SE9       30.01F
FLAGSTAFF, AZ  CLOUDY    35  31  85 CALM      30.12F

$$

REGIONAL REPORTS    NEVADA/IDAHO/WYOMING

CITY           SKY/WX    TMP DP  RH WIND       PRES   REMARKS
LAS VEGAS, NV  MOSUNNY   62  33  33 SW14G23   29.94R
ELY, NY        SNOW      32  32 100 NW3       30.04R
ELKO, NV       CLOUDY    39  36  89 CALM      30.06R
POCATELLO, ID  CLOUDY    41  37  86 SW12      30.05S
BURLEY, ID     CLOUDY    41  35  79 SW9       30.06R
FORT BRIDGER,  CLOUDY    36  33  92 NE5       30.05F WCI  32
EVANSTON, WY   CLOUDY    38  26  62 CALM      30.02S
ROCK SPRINGS,  CLOUDY    36  30  79 N3        30.02S
KEMMERER, WY     N/A     32  28  86 NW3       30.02F

$$




USA.gov is the U.S. government's official web portal to all federal, state and local government web resources and services.